Wetbulb
66.95 66.48 61.23 60.32 52.79 51.01 48.51 49.07 53.67 56.74 57.89 60.88 61.80 61.43 60.47 62.36 60.35 59.26 69.34 71.40 72.26 72.53 74.64 75.21 75.07 74.85 74.90 74.55 73.95 73.40 73.05 72.83 72.78 72.92 72.72 72.29 71.91 71.11 70.30 69.91 68.41 68.35 68.02 67.58 67.30 67.31 67.34 67.32 67.14
64.84 64.16 59.98 57.40 49.06 46.83 48.09 52.49 52.30 56.85 60.43 60.81 61.23 62.33 60.74 60.45 64.70 64.73 66.30 71.30 72.65 73.42 75.09 72.95 74.85 74.60 74.69 74.05 73.68 73.33 73.03 72.71 72.55 72.60 72.20 71.51 71.24 70.85 69.90 69.37 68.70 68.68 68.26 68.13 67.80 67.42 67.51 67.87 67.92
66.01 60.54 55.72 52.02 49.46 46.90 48.40 51.75 54.23 58.17 60.11 60.00 59.81 62.39 62.50 62.89 66.00 64.86 69.99 71.89 72.99 74.08 75.08 73.30 74.72 74.30 74.24 73.79 73.52 73.08 72.88 72.58 72.43 72.25 71.87 71.29 71.25 70.92 70.32 70.00 69.57 68.73 68.53 68.26 67.83 68.43 68.72 68.79 68.68
61.20 58.62 56.22 50.29 48.12 50.51 51.42 56.25 56.05 58.84 59.20 60.23 60.91 59.07 62.67 66.04 66.33 67.43 71.44 71.51 72.45 73.26 74.26 74.48 74.45 74.27 74.17 73.99 73.72 73.05 72.78 72.36 72.33 72.30 71.85 71.60 71.47 70.90 70.46 70.29 70.23 69.30 68.78 68.62 68.92 69.06 69.31 69.15 69.14
60.85 56.85 49.27 48.21 48.35 51.60 53.89 54.74 56.49 57.63 57.36 58.95 60.78 60.16 60.72 65.72 69.03 69.75 71.30 71.02 71.63 72.46 73.14 74.33 74.60 74.45 74.50 74.30 73.87 73.18 72.76 72.31 72.36 72.28 72.00 71.77 71.33 71.11 70.79 70.48 69.78 69.53 69.61 69.35 69.44 69.76 69.86 69.90 69.95
53.67 55.64 47.62 45.89 48.49 51.60 53.87 55.80 56.07 56.85 57.68 59.16 60.73 61.44 62.02 68.24 69.20 69.70 71.04 71.34 71.46 72.39 73.31 73.35 74.73 74.50 74.32 74.17 73.75 73.30 72.73 72.39 72.24 72.23 71.98 71.76 71.66 71.37 70.90 70.66 70.34 70.52 70.19 69.91 69.91 70.18 70.21 70.19 70.36
54.63 51.11 47.16 46.99 48.01 49.82 52.34 55.83 54.46 55.30 56.85 59.13 63.58 60.62 63.43 65.88 68.82 70.54 71.23 72.45 72.58 73.20 73.92 73.77 74.03 74.33 74.47 74.17 73.85 73.35 72.68 72.39 72.11 71.84 71.84 71.74 71.72 71.35 71.03 71.05 71.02 71.10 71.26 71.31 71.10 70.67 70.50 70.75 70.29
56.27 53.93 49.49 48.68 46.80 47.33 52.52 54.81 55.11 55.56 57.41 62.31 63.74 60.28 61.33 65.89 70.36 71.65 71.37 71.97 72.65 73.08 73.06 73.63 74.04 73.27 72.76 72.53 74.24 73.71 73.32 72.66 72.14 72.19 72.04 71.77 71.67 71.62 71.18 70.66 70.76 71.32 71.44 71.12 71.52 71.12 71.02 71.33 70.34
58.71 51.07 48.85 49.60 48.68 49.43 52.59 52.89 56.37 58.11 58.50 60.56 61.41 62.31 63.76 67.50 70.17 69.68 69.27 69.18 69.85 70.85 73.15 73.61 72.83 73.39 72.88 71.34 72.24 73.78 73.35 72.95 72.63 72.38 72.26 71.52 70.22 70.80 70.48 69.78 70.77 71.45 71.42 71.40 71.05 71.15 71.55 71.42 70.88
56.08 51.68 51.40 53.41 53.21 50.86 52.14 53.50 55.10 56.12 56.88 59.26 59.85 62.76 63.01 65.80 68.65 67.66 67.50 67.56 68.38 69.37 71.12 73.02 73.82 73.14 73.35 71.28 72.80 73.60 72.42 72.23 71.41 70.57 70.67 70.73 69.79 70.44 69.48 70.08 71.13 71.45 71.67 71.67 71.50 71.45 71.60 71.45 71.57
55.60 51.78 55.17 55.16 55.17 53.67 51.99 53.32 55.84 55.31 55.13 59.72 59.45 61.38 61.81 62.60 64.16 65.40 66.52 67.64 68.28 69.92 71.06 72.62 73.87 73.70 73.06 72.46 71.89 72.13 72.58 72.21 72.27 71.69 72.80 72.40 69.52 70.09 69.90 69.18 69.96 70.44 70.97 70.47 70.82 70.44 71.57 71.32 71.47
51.98 55.47 55.59 55.96 56.90 53.94 52.42 54.07 54.48 55.08 55.88 59.99 60.23 61.19 62.20 62.68 63.48 63.74 64.30 65.29 66.45 67.95 69.77 72.03 74.17 73.78 73.69 72.64 71.88 72.19 71.75 72.65 72.07 72.22 74.12 72.64 71.18 71.81 70.43 68.97 69.62 69.62 69.66 69.92 70.31 69.83 71.32 71.73 71.59
51.92 53.17 55.53 56.67 56.83 56.79 56.63 54.48 55.66 56.43 58.71 59.99 60.35 61.39 62.02 62.96 63.73 64.92 65.11 65.15 66.34 66.55 67.71 69.15 72.18 74.78 73.83 74.06 73.08 73.53 73.73 72.42 73.20 72.81 73.08 72.05 70.72 71.85 70.60 70.72 68.98 69.47 69.54 69.51 69.86 69.95 70.91 71.00 71.26
52.44 52.97 53.69 55.05 54.89 56.22 54.49 55.41 56.51 58.12 60.85 60.63 61.37 61.83 62.11 61.73 62.50 63.65 64.38 65.04 65.93 67.01 68.11 69.18 70.53 74.20 74.80 74.77 75.40 74.40 73.77 73.50 72.86 72.48 72.40 73.49 71.75 72.69 70.21 69.98 69.24 68.67 69.16 69.16 70.02 69.27 70.06 70.36 70.72
50.14 47.82 50.78 53.28 54.68 53.86 55.92 52.69 53.51 57.64 59.01 59.23 60.06 60.74 61.20 61.73 62.67 63.09 64.39 65.29 66.29 67.25 68.96 69.81 71.22 72.60 74.35 74.94 74.64 74.61 73.39 73.29 72.30 72.30 73.73 72.88 72.91 73.34 72.18 69.87 69.52 68.79 69.75 70.18 69.44 69.59 69.98 69.32 70.69
46.08 47.29 44.04 49.82 52.19 53.50 53.27 48.54 55.26 57.92 58.27 57.71 58.77 59.76 60.16 61.33 62.31 63.57 64.36 65.64 67.30 68.30 68.36 69.70 68.04 68.41 72.09 73.76 73.57 73.18 72.37 72.35 72.40 72.47 72.82 72.89 72.83 72.37 71.91 69.96 69.51 69.66 69.78 68.56 68.28 67.62 66.89 67.03 70.51
45.37 41.09 43.67 46.11 51.13 51.27 50.00 49.23 54.60 57.04 57.07 57.47 58.24 58.73 59.24 60.35 62.09 63.85 64.68 65.02 66.12 67.93 68.64 68.28 70.71 69.53 70.57 73.28 71.45 73.23 74.60 72.55 72.25 72.40 72.41 72.83 72.44 72.23 71.48 70.51 70.38 71.26 68.80 67.87 67.45 66.62 66.74 66.35 69.84
40.15 41.89 43.39 44.13 49.03 49.77 48.87 48.42 52.54 55.23 54.72 56.41 57.12 57.81 58.73 59.87 60.85 62.60 63.73 64.46 65.29 66.20 68.22 71.41 71.17 72.24 71.14 69.54 71.10 71.04 71.73 72.22 72.10 72.02 72.17 72.81 72.54 71.85 71.44 71.00 71.43 70.90 68.63 67.17 67.01 67.24 67.14 68.83 69.64
42.77 42.83 43.29 45.88 48.64 47.92 48.21 48.53 50.56 53.33 53.89 54.71 55.91 56.97 57.82 58.48 60.32 61.83 62.49 63.48 64.39 66.23 68.39 71.18 70.30 72.69 70.36 68.21 68.81 69.84 69.98 71.38 71.64 72.19 72.80 72.74 72.48 72.18 71.38 71.55 69.99 70.47 68.60 68.35 68.16 67.47 67.83 68.90 69.40
41.51 40.88 41.96 45.34 47.37 47.63 47.31 47.17 50.62 52.32 53.19 54.57 55.11 56.04 56.89 57.94 59.24 60.39 61.76 62.66 63.97 65.67 67.91 70.19 70.63 71.71 70.45 68.97 70.81 71.06 71.30 71.52 72.18 72.51 72.69 72.82 72.83 72.35 70.50 72.10 70.89 70.53 69.17 69.16 68.78 68.76 67.95 67.39 67.45
39.59 39.05 40.61 41.58 45.49 47.37 46.42 45.11 47.96 51.52 53.20 54.08 54.95 55.85 56.39 56.82 57.12 58.54 59.69 61.18 62.61 64.02 67.04 68.08 70.29 70.84 71.15 70.93 71.37 71.85 72.50 71.59 70.52 71.35 71.93 72.18 71.92 70.51 71.30 72.15 71.36 70.84 69.91 68.62 69.92 70.10 68.90 66.71 66.92
36.35 41.56 41.39 41.48 41.64 38.18 46.42 37.62 45.83 49.02 49.97 51.70 53.25 54.37 55.27 56.27 57.37 58.31 59.08 60.10 62.30 63.24 64.30 66.90 68.87 70.23 70.54 72.04 72.74 73.27 70.42 69.57 70.82 71.72 72.09 69.95 70.96 71.39 72.12 71.99 71.00 70.50 70.68 70.57 70.03 69.78 69.48 68.27 63.73
38.50 41.95 41.26 41.78 40.76 40.95 41.30 39.37 43.73 48.01 47.13 49.96 52.51 53.82 55.17 56.07 56.57 56.68 57.50 58.89 60.30 61.49 62.62 66.63 68.07 69.14 71.32 71.90 72.85 71.33 72.31 71.79 72.00 71.84 71.52 72.23 71.79 71.55 72.04 71.75 71.60 71.78 70.55 70.78 70.04 68.92 68.65 67.37 66.03
42.76 40.46 40.46 41.21 40.29 34.78 40.09 39.97 40.89 44.38 47.21 49.77 52.07 53.29 54.12 54.50 55.99 57.41 58.25 59.07 59.30 60.54 61.66 63.83 66.05 69.90 71.75 71.80 72.02 72.70 72.36 72.18 71.27 71.76 71.39 71.25 70.80 71.00 71.82 72.17 72.34 72.09 70.92 70.54 70.46 69.41 67.41 67.03 66.37
40.48 37.13 31.22 30.19 31.06 31.67 41.06 38.85 41.27 46.94 48.45 49.60 49.68 51.37 53.57 55.01 56.40 58.02 58.49 59.01 60.15 60.84 61.95 64.03 68.40 70.44 71.66 71.44 71.52 72.26 72.80 73.07 72.83 72.56 71.72 71.80 70.99 70.94 71.46 71.46 71.09 70.46 70.79 70.18 69.84 69.09 68.12 66.86 65.88
37.38 36.66 31.30 26.40 29.34 32.46 39.82 35.66 41.11 48.02 49.81 51.11 51.67 52.47 53.49 55.52 57.74 59.97 62.19 62.67 61.97 60.91 63.07 66.60 68.71 70.42 71.40 71.89 72.13 73.03 73.51 72.82 72.71 72.96 71.77 70.98 70.55 70.79 71.96 71.27 71.17 70.60 69.74 69.50 69.32 67.40 66.63 67.15 66.38
37.95 33.95 39.94 34.04 36.22 34.56 37.47 40.82 45.21 47.68 48.08 49.97 50.52 51.30 52.97 54.99 57.35 60.71 64.41 64.48 64.44 61.81 65.17 67.57 69.71 70.84 71.50 71.87 72.10 72.41 72.69 72.65 71.68 71.98 71.83 70.07 70.93 70.12 71.30 71.00 70.10 69.49 69.26 68.84 68.36 66.32 66.60 66.64 66.80
40.99 41.72 32.83 34.13 26.38 28.18 35.66 37.63 38.94 44.40 45.27 47.90 49.60 50.94 53.38 55.84 58.39 62.08 64.60 64.86 65.87 65.93 67.60 69.46 70.75 70.97 71.44 71.40 71.57 71.31 71.52 71.52 71.52 71.17 70.01 70.05 70.57 70.36 70.32 70.01 69.09 68.87 68.32 67.92 67.52 66.53 66.93 66.06 66.46
36.95 36.08 35.45 36.26 34.26 30.57 32.07 36.73 46.18 45.79 47.97 49.08 49.68 51.53 52.89 54.44 56.63 62.17 63.84 64.06 66.09 68.05 69.16 70.22 70.58 70.66 70.61 71.02 71.05 70.79 70.14 70.03 70.07 69.65 70.11 70.29 70.48 69.97 69.08 68.54 68.19 67.52 67.35 67.30 67.03 66.75 66.26 66.11 66.13
39.65 36.54 37.81 31.69 31.32 34.47 35.28 37.85 48.47 49.94 50.03 49.70 49.62 51.62 52.93 54.02 54.94 61.72 62.04 62.35 66.66 68.51 69.52 69.94 70.14 70.12 70.55 70.49 69.94 69.25 69.54 69.74 69.78 69.40 69.68 69.86 69.05 68.66 67.92 67.32 66.78 66.56 66.20 67.20 66.76 66.26 65.67 65.75 65.13
MSLP
1012.43 1011.81 1011.09 1010.01 1008.20 1005.81 1003.27 1002.45 1002.25 1001.98 1002.17 1002.22 1002.32 1001.97 1001.61 1000.94 1000.98 1001.23 1002.89 1003.41 1003.49 1004.89 1006.20 1007.85 1008.44 1008.96 1009.39 1009.81 1010.02 1010.33 1010.73 1010.97 1011.30 1011.68 1012.09 1012.34 1012.60 1012.82 1012.89 1013.13 1013.49 1013.86 1014.17 1014.38 1014.38 1014.41 1014.40 1014.56 1014.70
1011.30 1011.51 1010.67 1008.25 1006.50 1003.75 1002.08 1002.02 1001.96 1001.64 1001.78 1002.26 1002.16 1002.09 1001.78 1001.32 1000.99 1001.67 1002.59 1003.70 1003.93 1004.92 1006.06 1007.12 1008.25 1008.51 1008.93 1009.55 1009.94 1010.16 1010.46 1010.82 1011.10 1011.42 1011.82 1012.30 1012.52 1012.72 1012.86 1013.02 1013.27 1013.58 1013.91 1014.16 1014.37 1014.51 1014.50 1014.49 1014.61
1011.19 1010.94 1008.96 1006.83 1004.96 1002.80 1001.36 1001.55 1001.65 1001.87 1002.17 1001.95 1001.86 1001.92 1001.63 1001.39 1001.66 1001.92 1002.56 1003.56 1004.07 1005.08 1005.88 1006.63 1007.85 1008.26 1008.59 1009.39 1009.83 1010.14 1010.37 1010.71 1010.96 1011.36 1011.64 1011.98 1012.43 1012.80 1012.93 1013.05 1013.29 1013.50 1013.77 1014.03 1014.28 1014.39 1014.44 1014.50 1014.59
1010.60 1010.03 1008.72 1006.37 1003.56 1002.87 1001.97 1002.15 1001.91 1002.23 1001.93 1001.98 1001.83 1001.63 1001.76 1001.70 1001.78 1001.66 1002.72 1003.39 1003.86 1004.80 1005.55 1006.42 1007.58 1008.20 1008.46 1009.23 1009.97 1010.09 1010.43 1010.72 1010.90 1011.29 1011.67 1011.97 1012.43 1012.72 1012.91 1013.15 1013.34 1013.47 1013.74 1014.11 1014.23 1014.30 1014.49 1014.53 1014.58
1010.06 1008.79 1006.99 1005.12 1003.55 1002.56 1002.43 1002.45 1002.46 1002.36 1002.07 1001.83 1001.64 1001.11 1001.22 1001.64 1001.80 1001.93 1002.67 1003.27 1003.56 1004.34 1005.18 1006.36 1007.53 1008.22 1008.71 1009.19 1009.94 1010.19 1010.55 1010.84 1011.03 1011.25 1011.64 1012.16 1012.57 1012.70 1012.86 1013.21 1013.39 1013.48 1013.59 1013.85 1014.17 1014.36 1014.45 1014.53 1014.56
1009.33 1008.43 1006.19 1004.26 1003.20 1002.72 1002.52 1002.66 1002.54 1002.27 1001.91 1001.53 1001.41 1001.13 1000.90 1001.39 1001.81 1002.09 1002.60 1003.15 1003.51 1004.31 1005.11 1005.85 1007.64 1008.17 1008.69 1009.11 1009.73 1010.18 1010.48 1010.67 1010.89 1011.36 1011.69 1012.17 1012.46 1012.68 1012.97 1013.21 1013.40 1013.46 1013.58 1013.76 1013.89 1014.11 1014.38 1014.44 1014.57
1008.13 1007.43 1005.71 1004.72 1003.48 1002.71 1002.48 1002.56 1002.40 1001.95 1001.50 1001.03 1000.92 1000.69 1000.85 1001.35 1001.71 1002.31 1002.53 1003.31 1003.74 1004.51 1005.17 1005.80 1006.89 1007.97 1008.57 1008.92 1009.42 1009.90 1010.32 1010.38 1010.54 1010.96 1011.33 1011.81 1012.14 1012.37 1012.76 1013.12 1013.37 1013.47 1013.62 1013.71 1013.79 1013.92 1014.11 1014.27 1014.43
1007.99 1006.72 1005.29 1004.50 1004.11 1003.27 1003.34 1002.87 1002.53 1001.70 1001.26 1001.39 1001.42 1000.51 1000.76 1001.37 1002.11 1002.42 1002.69 1003.13 1003.62 1004.18 1004.75 1005.58 1006.43 1007.13 1007.90 1008.53 1009.22 1009.61 1010.00 1010.41 1010.71 1010.80 1011.03 1011.53 1011.99 1012.22 1012.62 1012.93 1013.18 1013.36 1013.44 1013.53 1013.58 1013.72 1013.84 1014.03 1014.20
1008.34 1006.46 1004.30 1003.58 1003.47 1003.41 1003.48 1002.87 1002.12 1001.97 1001.72 1001.57 1001.25 1001.13 1001.95 1002.16 1002.14 1002.02 1002.29 1002.62 1002.94 1003.47 1004.40 1005.13 1005.77 1006.33 1006.95 1007.47 1008.13 1009.33 1009.78 1010.24 1010.72 1010.84 1010.99 1011.53 1011.52 1011.74 1012.11 1012.41 1012.55 1013.03 1013.19 1013.28 1013.42 1013.56 1013.67 1013.77 1013.81
1007.06 1005.31 1003.57 1003.55 1003.47 1003.82 1003.46 1002.81 1001.91 1002.09 1001.58 1001.40 1001.49 1002.00 1002.00 1001.95 1001.97 1001.77 1002.12 1002.24 1002.43 1002.93 1003.97 1004.89 1005.70 1005.99 1006.58 1006.89 1007.37 1008.15 1008.57 1009.06 1009.49 1009.74 1010.01 1010.83 1010.81 1010.81 1011.22 1011.59 1012.29 1012.59 1012.87 1013.05 1013.16 1013.26 1013.43 1013.55 1012.42
1006.03 1004.19 1003.72 1003.45 1003.72 1004.26 1003.87 1002.91 1002.29 1002.12 1001.12 1000.85 1001.05 1001.33 1001.94 1002.23 1002.19 1002.15 1001.98 1001.85 1001.80 1002.41 1003.06 1004.07 1005.28 1005.73 1006.18 1006.47 1006.79 1007.18 1007.51 1007.68 1008.02 1008.47 1009.03 1009.38 1009.79 1010.26 1010.70 1010.75 1011.53 1011.99 1012.52 1012.18 1012.56 1012.79 1012.56 1012.21 1011.80
1005.50 1004.28 1004.36 1003.77 1003.72 1004.34 1004.05 1003.53 1002.25 1001.79 1001.37 1001.12 1001.61 1002.03 1002.41 1002.21 1002.07 1001.89 1001.94 1002.16 1002.08 1002.52 1003.01 1003.51 1004.38 1005.37 1005.78 1006.01 1006.31 1006.43 1006.52 1006.71 1006.97 1007.40 1008.30 1008.73 1009.10 1009.27 1009.59 1009.98 1010.18 1010.84 1010.74 1011.16 1011.23 1011.50 1011.93 1011.66 1011.61
1004.46 1004.23 1004.09 1004.01 1004.04 1003.90 1004.57 1003.32 1002.51 1001.43 1001.42 1001.62 1001.66 1002.01 1002.17 1002.26 1002.35 1002.29 1002.33 1002.59 1002.43 1002.51 1002.69 1002.98 1003.74 1004.71 1005.36 1005.74 1005.40 1005.46 1005.57 1005.77 1005.97 1006.53 1007.29 1008.02 1008.14 1008.40 1008.98 1009.22 1009.37 1009.61 1009.97 1010.16 1010.52 1011.07 1011.12 1011.42 1011.45
1004.61 1004.27 1003.86 1003.71 1003.54 1003.76 1004.00 1002.88 1003.23 1001.19 1001.38 1001.37 1001.78 1001.76 1001.50 1001.81 1001.96 1001.97 1002.19 1002.30 1002.11 1002.24 1002.35 1002.65 1003.09 1003.84 1004.59 1004.79 1004.89 1004.81 1005.22 1005.11 1005.39 1005.75 1006.23 1007.15 1007.47 1007.61 1008.09 1008.71 1009.06 1009.11 1009.21 1009.29 1010.00 1010.23 1010.72 1010.97 1010.89
1005.43 1004.60 1003.84 1002.77 1002.87 1003.03 1003.82 1002.54 1000.89 1001.16 1001.08 1000.65 1001.12 1001.29 1001.00 1001.08 1001.41 1001.43 1001.72 1002.02 1001.99 1001.93 1002.23 1002.30 1002.65 1003.13 1003.68 1003.85 1004.06 1004.43 1004.23 1004.42 1004.42 1004.68 1005.37 1006.13 1007.11 1007.26 1007.74 1008.09 1008.49 1008.55 1008.76 1009.23 1009.70 1010.04 1010.63 1010.62 1010.72
1005.71 1004.74 1003.02 1001.25 1002.45 1002.49 1003.67 1000.70 998.93 1000.07 1000.17 1000.19 1000.21 1000.49 1000.18 1000.11 1000.28 1000.51 1000.96 1001.38 1001.79 1002.01 1002.10 1002.13 1002.10 1002.16 1002.73 1003.08 1003.25 1003.35 1003.36 1003.70 1003.78 1004.06 1004.58 1005.50 1006.33 1006.93 1007.33 1007.56 1007.74 1007.88 1008.41 1008.95 1009.31 1009.72 1009.94 1010.04 1010.31
1005.04 1002.67 1001.51 1001.02 1001.20 1002.07 1002.97 1000.02 999.26 999.51 999.40 999.03 999.20 999.47 999.51 999.41 999.69 999.99 1000.82 1001.30 1001.52 1001.78 1001.84 1001.70 1001.66 1001.71 1001.96 1002.29 1002.56 1002.59 1002.85 1003.17 1003.12 1003.53 1004.13 1004.75 1005.69 1006.46 1006.80 1007.09 1007.15 1007.58 1008.09 1008.37 1008.80 1009.36 1009.53 1009.35 1010.25
1003.28 1002.28 1001.76 1000.85 1000.31 1000.92 1000.90 999.38 999.55 998.93 998.90 998.55 998.68 999.14 998.98 999.03 999.41 1000.01 1000.43 1000.97 1001.21 1001.28 1001.35 1001.31 1001.27 1001.60 1001.66 1001.84 1001.84 1001.96 1002.08 1002.54 1002.80 1003.02 1003.60 1004.32 1005.24 1005.94 1006.56 1006.48 1006.81 1007.55 1007.81 1007.94 1008.54 1008.84 1008.89 1009.38 1009.83
1004.31 1003.00 1001.24 1000.65 1000.55 1000.20 999.45 998.77 998.99 999.05 998.71 998.23 998.24 998.28 998.50 998.84 999.35 999.68 999.99 1000.18 1000.51 1000.74 1000.72 1000.63 1000.67 1000.92 1001.46 1000.90 1000.84 1000.98 1001.16 1001.69 1002.16 1002.68 1003.42 1004.13 1004.84 1005.43 1005.94 1005.88 1006.82 1007.24 1007.21 1007.60 1008.14 1008.55 1008.95 1009.30 1009.47
1004.71 1003.85 1002.36 1002.16 1001.69 1000.64 999.70 998.28 998.45 998.30 997.73 997.78 997.85 997.89 998.00 998.19 998.31 998.67 999.00 999.41 999.74 999.92 999.91 999.93 1000.07 1000.34 1000.78 1000.39 1000.47 1000.29 1000.46 1000.83 1001.59 1002.30 1003.18 1003.85 1004.42 1004.96 1005.57 1005.49 1006.21 1006.62 1006.73 1007.39 1007.85 1008.23 1008.23 1008.70 1009.57
1005.47 1004.36 1003.47 1002.60 1002.00 1001.34 1000.35 998.59 998.09 997.56 997.58 997.70 997.82 998.04 998.03 998.02 998.10 998.26 998.24 998.41 998.59 998.70 998.90 999.08 999.42 999.74 1000.05 1000.22 1000.27 1000.65 1000.66 1001.32 1001.71 1002.04 1002.68 1003.48 1004.16 1004.99 1005.26 1005.34 1005.73 1006.44 1006.57 1006.84 1007.40 1007.88 1008.17 1008.71 1009.15
1004.86 1004.76 1004.02 1003.25 1002.44 1000.63 1000.62 997.66 997.40 997.24 996.83 996.84 996.82 997.04 997.15 997.27 997.30 997.30 997.24 997.07 997.37 997.48 997.71 998.14 998.69 999.16 999.32 999.79 999.56 999.78 999.65 999.89 1000.47 1001.11 1002.00 1003.58 1004.09 1004.70 1004.83 1005.28 1005.85 1006.25 1006.05 1006.54 1007.27 1007.73 1008.17 1008.45 1008.97
1004.67 1004.58 1003.83 1003.19 1002.27 1001.59 1000.11 998.72 996.36 996.70 995.93 995.68 995.79 996.08 996.38 996.32 996.29 996.18 996.07 995.98 996.19 996.46 996.67 997.20 997.77 998.16 998.42 998.92 999.09 999.48 999.08 999.38 1000.24 1000.79 1002.17 1002.88 1003.71 1004.20 1004.73 1005.32 1005.66 1005.84 1006.01 1006.59 1006.98 1007.71 1008.06 1008.21 1008.31
1005.17 1004.43 1003.83 1003.13 1002.02 999.97 998.90 998.60 996.24 995.99 995.30 994.97 995.08 995.17 995.45 995.58 995.56 995.45 995.37 995.38 995.29 995.49 995.93 996.39 996.95 997.28 997.91 998.55 998.81 998.88 998.99 999.41 999.86 1000.74 1001.50 1002.36 1003.37 1004.13 1004.60 1004.89 1005.28 1005.67 1006.00 1006.53 1007.12 1007.64 1008.08 1008.23 1007.88
1005.03 1004.46 1003.10 1002.14 1000.70 998.76 998.81 998.25 996.80 995.42 995.38 994.36 994.97 995.33 995.46 995.47 995.14 994.95 994.74 994.43 994.29 994.66 995.20 995.75 996.25 996.80 997.59 998.07 998.38 998.75 999.24 999.71 1000.07 1000.73 1000.84 1001.58 1002.64 1003.46 1004.43 1004.81 1005.19 1005.60 1006.09 1006.64 1006.99 1007.39 1007.41 1007.96 1007.92
1004.82 1003.76 1002.67 1000.41 999.27 998.66 998.73 996.73 995.64 995.89 995.65 995.43 995.33 995.45 995.42 995.25 995.04 994.67 994.23 994.01 993.92 994.02 994.57 995.26 995.74 996.40 997.28 997.71 998.16 998.71 999.28 999.56 1000.01 1000.32 1000.91 1001.48 1002.24 1003.03 1004.28 1004.66 1005.15 1005.49 1006.04 1006.37 1006.72 1006.82 1007.10 1007.52 1007.86
1005.18 1003.63 1003.02 1001.21 1000.19 997.34 995.90 996.50 996.44 995.34 995.67 995.33 995.05 995.32 995.39 995.41 995.01 994.54 994.19 993.86 993.87 993.92 994.45 994.92 995.43 996.27 997.01 997.66 998.20 998.75 999.12 999.50 999.97 1000.79 1001.40 1001.98 1002.46 1003.23 1004.11 1004.64 1005.12 1005.60 1005.91 1006.18 1006.53 1006.36 1007.08 1007.40 1007.67
1004.78 1004.38 1003.08 1001.92 1000.61 997.32 995.20 994.74 994.37 993.77 994.86 995.03 995.59 995.81 995.70 995.46 994.87 994.46 994.38 994.41 994.36 994.42 994.90 994.98 995.55 996.23 997.05 997.81 998.29 998.85 999.42 999.88 1000.62 1001.23 1001.60 1002.33 1002.91 1003.38 1004.09 1004.62 1005.13 1005.45 1005.69 1006.02 1006.38 1006.36 1006.85 1007.19 1007.37
1004.03 1003.47 1004.01 1003.02 1001.00 997.99 995.41 993.89 993.45 993.82 993.99 995.30 995.96 996.16 995.93 995.35 994.85 994.69 995.13 995.61 995.02 994.61 994.66 995.21 995.66 996.37 997.18 997.81 998.42 999.04 999.58 1000.27 1000.92 1001.52 1002.11 1002.70 1003.23 1003.66 1004.06 1004.50 1004.90 1005.22 1005.59 1005.91 1006.28 1006.26 1006.41 1006.93 1007.44
1005.01 1004.52 1003.49 1002.63 1001.76 999.56 996.55 994.73 994.51 994.50 995.59 995.79 995.89 996.08 995.95 995.52 994.97 994.82 995.85 995.98 994.84 994.74 995.10 995.51 995.96 996.47 997.23 997.99 998.66 999.32 999.97 1000.59 1001.22 1001.77 1002.30 1002.89 1003.30 1003.73 1004.08 1004.50 1004.78 1005.05 1005.27 1005.68 1006.05 1006.17 1006.33 1006.66 1007.34
Wind_Speed
11 9 5 6 8 7 14 8 11 6 8 4 4 7 11 8 16 1 5 12 13 20 20 23 22 22 20 18 17 17 16 16 16 15 14 14 14 14 15 14 14 12 11 10 10 10 10 8 7
11 6 6 4 9 11 12 13 10 10 1 5 6 11 9 8 9 2 10 13 17 18 19 22 23 23 22 20 18 18 18 17 17 17 16 15 15 15 15 15 16 15 13 11 10 9 8 8 7
9 8 8 7 13 15 10 9 11 6 5 5 4 6 7 8 7 2 11 16 18 18 19 20 24 22 22 20 19 19 18 18 18 17 18 17 16 15 14 14 14 15 14 12 11 9 8 7 7
7 6 6 12 16 17 15 1 2 4 5 2 5 4 4 4 1 6 16 16 16 18 19 19 23 21 21 20 18 19 19 19 18 18 18 17 17 16 14 14 14 14 13 12 11 9 7 5 4
6 5 11 16 21 18 11 14 8 10 9 7 4 7 4 6 5 9 18 15 15 16 16 19 21 19 18 18 17 17 18 18 18 18 17 16 16 15 15 14 14 14 14 13 11 9 7 6 4
6 5 12 18 19 17 15 14 13 15 13 11 9 11 7 4 9 12 17 15 13 14 14 15 18 17 18 18 18 17 18 18 18 17 16 16 16 15 15 14 14 14 14 13 12 10 8 6 5
14 11 17 20 16 14 15 12 14 15 13 12 6 12 2 7 7 10 14 13 11 12 12 12 16 16 15 17 17 17 18 18 19 18 17 17 17 16 15 14 14 14 13 12 12 11 9 8 7
12 12 21 19 17 21 14 11 17 14 14 4 6 9 8 8 7 11 12 13 12 12 12 12 12 16 16 16 15 16 17 17 18 18 18 18 17 16 16 14 14 15 14 13 12 11 11 10 8
13 14 17 23 19 12 6 15 16 8 11 9 2 4 6 1 8 11 12 13 11 11 11 11 14 14 15 16 15 16 18 17 16 16 17 15 13 15 17 16 15 16 15 14 12 11 11 10 9
18 17 26 18 14 9 16 16 11 7 15 14 9 8 5 5 7 10 12 13 14 14 11 11 12 12 12 12 13 15 15 15 16 16 17 15 15 13 14 15 14 16 15 13 13 13 12 10 9
22 26 21 21 15 13 19 19 14 14 16 15 13 10 2 2 2 5 8 9 10 14 11 12 12 12 14 12 9 8 9 11 12 18 15 14 13 12 11 9 10 11 14 10 12 11 10 12 8
27 26 26 27 16 12 21 18 24 23 20 18 5 9 12 13 9 7 7 9 10 10 10 10 12 12 14 10 11 11 11 11 11 13 16 12 10 11 11 10 12 12 10 12 11 7 9 10 7
29 29 24 24 23 17 18 24 23 23 22 19 19 16 19 17 17 14 12 13 12 11 11 7 9 13 12 14 11 11 11 12 12 12 15 14 13 11 12 11 11 11 11 11 10 10 8 9 9
20 25 30 28 20 21 24 28 21 26 22 22 22 22 22 19 17 12 12 13 12 12 12 10 8 11 13 13 14 11 11 12 11 12 13 17 13 11 12 12 12 12 11 11 9 10 9 9 9
24 28 26 25 28 28 19 30 37 28 25 24 20 21 21 21 19 17 16 16 15 13 12 11 7 8 12 13 13 11 12 11 11 11 14 15 16 13 13 12 11 12 11 11 9 8 9 9 8
17 23 25 33 25 24 22 30 36 27 25 26 27 22 22 23 22 19 16 14 13 12 10 9 9 10 11 11 10 10 11 11 10 10 11 15 15 16 13 11 12 12 10 10 10 10 9 9 6
21 24 31 29 28 24 22 37 34 30 22 23 21 21 20 20 18 12 11 12 12 11 10 12 14 15 11 10 10 10 11 10 9 9 10 13 15 16 13 11 11 11 10 10 9 8 9 9 7
26 27 28 28 22 27 29 35 28 22 13 24 23 22 21 20 17 14 14 14 14 14 13 14 13 11 10 9 8 8 8 9 9 9 9 12 11 15 13 10 10 9 10 9 10 10 9 5 6
25 27 26 20 21 28 29 35 29 27 28 25 23 22 22 22 20 18 16 15 15 15 15 14 14 11 8 7 8 8 10 9 9 8 10 12 12 14 14 10 9 11 10 11 11 8 10 6 3
23 26 30 19 17 21 26 31 27 26 28 27 26 25 24 23 21 19 17 16 16 16 14 14 12 11 10 8 8 7 8 8 8 8 10 12 13 13 12 11 11 12 9 10 9 11 7 5 5
24 25 24 27 17 22 20 27 26 23 21 20 23 23 24 23 22 22 21 20 18 17 15 13 12 11 11 11 8 7 7 5 8 9 9 10 11 10 13 12 10 10 9 10 11 9 9 6 6
21 23 25 24 23 20 21 21 22 24 28 28 27 25 24 23 23 23 23 23 21 20 17 15 11 11 10 12 11 12 10 9 8 9 9 9 13 13 12 12 11 11 9 8 9 8 7 6 5
21 19 25 20 22 25 29 20 16 18 21 21 19 20 21 21 22 22 22 22 20 18 16 14 12 12 10 12 12 11 10 7 9 9 14 13 10 12 12 12 14 11 8 9 8 7 6 6 7
22 19 21 20 19 22 26 23 19 20 22 18 17 17 17 12 13 14 14 15 16 15 14 13 13 10 10 12 13 12 10 10 11 12 12 11 10 9 12 13 11 10 8 8 7 8 8 8 6
17 18 13 18 21 18 20 20 18 7 7 6 1 6 9 7 10 9 11 10 11 13 13 11 12 11 11 12 12 12 12 12 14 14 11 13 10 10 11 11 10 9 8 8 7 8 7 8 7
20 19 15 21 17 22 26 22 18 21 22 23 14 4 5 6 9 11 11 10 10 10 12 12 11 11 12 12 13 12 13 10 11 10 11 9 9 10 13 9 9 8 9 7 7 7 6 7 7
21 20 20 24 20 16 19 25 24 14 10 10 9 6 5 8 11 14 13 9 7 9 10 12 12 13 13 14 13 14 12 13 11 13 10 9 9 9 11 10 9 9 8 7 7 5 7 7 7
24 19 15 13 16 17 15 22 13 21 24 11 5 3 8 11 15 15 10 7 4 5 8 11 13 15 15 15 14 13 13 13 13 12 11 11 10 10 10 10 8 8 7 8 7 6 8 8 6
12 17 10 16 14 17 12 13 15 7 11 11 4 7 11 14 17 15 10 7 7 7 11 12 15 16 16 15 14 15 14 14 13 12 11 11 10 9 9 8 9 9 8 8 7 6 7 9 7
2 10 7 12 14 17 17 5 6 18 13 6 5 9 14 16 18 14 8 5 2 9 13 14 15 16 16 15 15 15 15 14 13 12 11 10 9 9 9 9 9 8 8 8 8 9 8 9 8
Wind_Direction
217 235 249 228 233 237 244 227 243 196 199 161 283 206 227 232 172 123 97 148 147 158 160 173 173 174 175 184 177 171 166 166 167 168 170 173 172 171 163 158 156 158 160 161 155 149 142 137 129
193 200 221 245 248 221 228 213 213 211 114 309 243 218 239 213 219 62 141 149 147 155 163 175 177 176 175 183 181 175 171 174 173 173 176 179 179 176 169 164 165 166 167 164 161 158 148 143 140
184 224 249 228 234 242 244 176 221 176 285 278 227 239 180 226 224 311 101 153 151 160 166 177 176 178 176 181 183 178 177 179 178 179 180 182 184 181 174 172 172 171 170 169 169 165 162 159 153
183 195 238 247 235 227 242 77 149 227 306 255 242 205 197 228 225 195 151 156 155 166 172 162 175 183 176 179 186 183 182 184 181 183 186 185 186 183 179 180 180 176 173 177 176 174 176 175 176
212 253 244 233 243 246 235 250 276 264 290 270 257 237 240 180 168 152 154 161 164 169 175 166 175 181 179 177 189 188 188 188 186 188 188 189 189 185 182 185 184 181 181 183 186 186 189 198 212
199 269 242 240 240 241 243 254 258 261 269 270 239 231 227 110 171 160 160 167 164 168 178 171 176 180 180 177 189 192 194 191 191 192 189 193 193 188 188 190 190 192 191 191 189 191 201 206 211
238 220 240 260 267 268 249 239 248 257 264 248 236 215 163 174 133 169 167 162 163 173 182 182 180 184 184 180 187 194 202 197 195 192 192 197 196 191 192 195 197 199 198 198 199 198 202 209 214
232 246 251 239 241 250 257 258 247 249 250 54 245 210 160 98 154 164 175 173 175 181 186 187 193 188 195 193 192 197 204 205 203 198 196 199 198 194 195 196 202 204 204 204 204 204 206 210 214
232 240 242 242 232 243 238 249 243 249 261 215 285 76 49 115 172 178 179 184 190 195 193 197 194 197 198 205 197 200 208 210 210 206 204 195 207 197 198 203 194 206 207 207 209 212 216 219 218
219 228 239 247 258 236 247 252 253 236 223 224 219 139 93 97 180 194 194 200 204 205 199 206 217 206 207 212 210 204 212 211 212 213 207 212 215 209 207 200 207 201 209 211 212 215 219 221 233
221 240 247 245 246 244 251 258 246 245 247 221 217 201 196 307 172 217 223 237 219 217 208 202 203 208 212 213 210 216 212 212 213 214 210 204 209 211 202 209 198 208 207 212 206 209 220 220 238
240 240 241 260 241 235 249 263 262 251 250 252 203 259 283 283 276 259 271 262 222 230 243 232 209 208 213 219 210 217 221 216 216 211 208 211 205 205 208 211 203 205 202 213 214 215 228 230 226
237 241 247 244 254 238 254 248 252 250 247 254 257 256 263 272 269 269 269 266 273 271 257 228 226 209 214 215 224 222 224 223 223 214 206 213 212 208 203 211 215 206 212 206 214 223 215 219 228
239 247 247 252 238 245 242 251 252 246 253 254 259 260 259 256 258 267 266 264 262 268 269 270 237 213 211 220 222 231 229 235 224 225 218 207 214 206 206 208 211 218 218 215 211 217 219 224 233
258 261 262 248 241 239 245 254 247 247 248 255 254 255 255 256 260 259 255 253 259 261 263 272 245 216 222 226 230 230 241 227 232 221 218 212 210 215 210 209 213 218 220 220 220 216 220 241 226
262 246 245 239 232 238 229 254 250 242 232 239 253 253 259 262 262 263 260 248 253 259 255 263 270 270 240 245 244 241 241 235 227 224 215 209 208 221 201 213 215 218 216 208 212 214 226 231 225
240 243 235 245 230 222 216 244 252 256 256 241 246 261 258 261 263 259 253 260 248 239 249 262 273 265 255 247 246 241 238 232 225 213 213 199 204 208 210 215 214 210 214 210 218 217 224 239 235
237 237 246 259 237 226 223 241 249 259 243 247 244 249 251 254 253 251 250 252 257 264 257 254 260 263 245 249 234 242 229 225 221 210 208 192 198 200 200 209 207 195 210 206 212 220 223 225 246
264 270 261 263 249 257 229 241 245 246 255 257 255 255 258 261 266 270 267 267 264 258 256 250 248 241 238 218 222 221 219 210 208 202 195 186 195 194 195 198 180 199 197 204 201 209 220 229 209
258 256 257 256 284 252 245 252 250 244 248 251 255 255 263 270 271 272 271 265 258 261 256 257 252 248 227 222 226 231 214 201 197 184 179 190 193 185 184 189 182 191 185 192 188 206 206 203 200
254 254 250 254 264 235 250 252 253 247 251 256 257 259 263 266 270 269 269 268 265 257 250 250 251 240 226 232 208 197 172 159 176 179 179 181 180 163 183 183 177 172 199 182 190 194 204 208 214
266 250 253 251 243 244 218 257 242 237 241 242 247 252 255 261 262 265 265 263 258 257 254 247 235 228 219 207 202 195 188 171 178 175 148 164 170 174 176 169 169 181 199 164 186 194 210 218 207
267 264 252 237 242 249 248 263 264 260 258 257 254 253 253 259 263 266 266 265 260 257 251 241 233 237 221 197 210 186 200 158 160 159 143 152 159 163 162 166 179 178 189 181 178 176 214 202 235
266 250 245 243 241 236 235 240 255 253 255 253 249 248 250 260 271 266 271 269 257 249 240 234 229 218 197 193 193 190 177 160 150 148 154 149 150 159 166 173 173 170 185 179 184 181 192 228 232
240 244 237 218 231 240 227 232 243 212 5 236 119 245 247 282 279 296 284 278 260 232 229 216 202 188 183 181 175 174 163 164 151 157 153 147 153 159 163 164 165 173 182 180 185 192 196 201 214
227 228 236 224 228 230 226 239 222 227 257 254 292 249 248 332 324 315 302 286 267 233 209 201 186 173 170 163 157 154 154 154 146 152 138 147 159 161 156 165 170 168 178 179 185 185 203 199 212
240 247 247 269 283 254 219 212 249 253 228 233 221 302 336 332 330 331 323 300 268 217 188 191 173 162 159 151 145 144 147 146 129 130 147 148 138 133 162 165 166 173 178 179 172 207 202 203 215
249 230 228 245 256 238 224 205 225 210 213 224 130 36 16 1 342 347 338 332 287 183 178 170 160 154 149 146 140 138 137 129 133 136 138 145 134 147 155 159 168 176 176 181 189 180 196 201 202
219 218 250 269 263 266 223 208 209 230 128 122 90 26 10 8 352 359 352 347 260 170 151 150 149 145 144 142 135 134 130 130 134 137 139 140 143 147 158 165 174 174 177 184 192 206 183 208 196
308 320 272 252 219 258 282 74 83 117 143 135 45 12 358 353 347 12 360 355 292 154 146 144 144 142 139 136 135 131 131 133 135 138 139 142 143 153 152 162 169 174 180 184 198 210 211 210 184